FW0460 Weather Reports


time (UTC)temp
F
wind
direction
speed
knots
gust
knots
rain 1hr
in
rain 24hr
in
rain mn
in
humidity
%
barometer
mb
20260503195021 56 0.0 0.0 0.00 0.00 0.00 54 1018.9
20260503194018 57 0.0 1.7 0.00 0.00 0.00 54 1018.9
20260503193034 57 0.0 1.7 0.00 0.00 0.00 54 1018.9
20260503192031 57 0.0 0.0 0.00 0.00 0.00 52 1018.8
20260503191027 58 0.0 0.0 0.00 0.00 0.00 51 1018.7
20260503190024 59 0.0 0.0 0.00 0.00 0.00 49 1018.6
20260503185020 59 0.0 0.0 0.00 0.00 0.00 49 1018.6
20260503184017 59 0.0 0.0 0.00 0.00 0.00 51 1018.5
20260503183034 59 0.0 0.0 0.00 0.00 0.00 52 1018.4
20260503182050 61 0.0 0.0 0.00 0.00 0.00 46 1018.4
20260503181027 63 0.0 0.0 0.00 0.00 0.00 43 1018.3
20260503180024 64 0.0 0.0 0.00 0.00 0.00 41 1018.3
20260503175019 66 0.0 0.0 0.00 0.00 0.00 40 1018.2
20260503174036 68 0.0 0.0 0.00 0.00 0.00 38 1018.2
20260503173031 69 0.0 0.0 0.00 0.00 0.00 37 1018.1
20260503172028 69 0.0 0.0 0.00 0.00 0.00 35 1018.1
20260503171044 70 139 0.0 1.7 0.00 0.00 0.00 35 1018.0
20260503131023 71 62 0.9 4.3 0.00 0.00 0.00 33 1019.8
20260503081020 62 136 2.6 8.7 0.00 0.00 0.00 47 1022.3
20260503072023 59 172 2.6 7.0 0.00 0.00 0.00 52 1022.2
20260503071020 58 181 3.5 8.7 0.00 0.00 0.00 54 1022.2
20260503055033 53 186 3.5 8.7 0.00 0.00 0.00 61 1022.0
20260503054029 52 169 2.6 7.0 0.00 0.00 0.00 60 1021.9
20260503053026 51 134 1.7 7.0 0.00 0.00 0.00 61 1021.9
20260503052023 51 123 0.9 4.3 0.00 0.00 0.00 60 1021.8
20260503051019 49 85 1.7 7.0 0.00 0.00 0.00 62 1021.8
20260503050016 49 89 2.6 8.7 0.00 0.00 0.00 63 1021.8
20260503045032 48 68 2.6 7.0 0.00 0.00 0.00 64 1021.6
20260503044029 48 73 2.6 7.0 0.00 0.00 0.00 65 1021.6
20260503043026 48 67 1.7 4.3 0.00 0.00 0.00 66 1021.5
20260503042022 47 52 0.9 4.3 0.00 0.00 0.00 66 1021.4
20260503041019 47 38 1.7 4.3 0.00 0.00 0.00 67 1021.3
20260503040035 47 77 0.9 4.3 0.00 0.00 0.00 67 1021.3
20260503035031 46 55 1.7 4.3 0.00 0.00 0.00 69 1021.2
20260503034048 44 98 0.0 1.7 0.00 0.00 0.00 73 1021.1
20260503033025 44 0.0 1.7 0.00 0.00 0.00 73 1021.0
20260503032021 44 35 1.7 7.0 0.00 0.00 0.00 74 1021.0
20260503031038 41 16 1.7 4.3 0.00 0.00 0.00 77 1020.8
20260503030034 39 0.0 0.0 0.00 0.00 0.00 78 1020.8
20260503025031 39 298 0.0 1.7 0.00 0.00 0.00 78 1020.8
20260503024027 39 0.0 1.7 0.00 0.00 0.00 77 1020.9
20260503023024 39 273 0.9 4.3 0.00 0.00 0.00 77 1020.7
20260503022020 40 254 0.9 1.7 0.00 0.00 0.00 77 1020.7
20260503021016 44 242 0.9 1.7 0.00 0.00 0.00 76 1020.6
20260503020033 45 26 1.7 1.7 0.00 0.00 0.00 74 1020.7
20260503015029 45 33 1.7 7.0 0.00 0.00 0.00 74 1020.6
20260503014026 44 23 1.7 4.3 0.00 0.00 0.00 77 1020.6
20260503013022 43 15 1.7 1.7 0.00 0.00 0.00 77 1020.5
20260503012019 42 13 0.0 1.7 0.00 0.00 0.00 78 1020.5
20260503011016 43 11 0.9 1.7 0.00 0.00 0.00 77 1020.5
20260503010053 42 112 0.0 1.7 0.00 0.00 0.00 78 1020.6
20260503005029 43 204 0.9 4.3 0.00 0.00 0.00 77 1020.6
20260503004025 43 140 0.0 1.7 0.00 0.00 0.00 77 1020.5
20260503003022 44 146 2.6 7.0 0.00 0.00 0.00 76 1020.7
20260503002018 47 104 0.9 4.3 0.00 0.00 0.00 69 1020.5
20260503001035 48 0.0 1.7 0.00 0.00 0.00 68 1020.3
20260503000031 49 0 0.0 1.7 0.00 0.00 0.00 67 1020.4
20260502235028 49 354 0.0 1.7 0.00 0.00 0.00 67 1020.3
20260502234025 49 359 0.0 1.7 0.00 0.00 0.00 67 1020.4
20260502233021 49 322 0.0 1.7 0.00 0.00 0.00 67 1020.4
20260502232017 48 1 0.0 1.7 0.00 0.00 0.00 70 1020.4
20260502231054 48 11 0.9 4.3 0.00 0.00 0.00 72 1020.3
20260502230031 47 348 0.9 1.7 0.00 0.00 0.00 75 1020.3
20260502225027 47 278 0.0 1.7 0.00 0.00 0.00 72 1020.4
20260502224024 48 0.0 0.0 0.00 0.00 0.00 70 1020.4
20260502223020 49 20 0.9 1.7 0.00 0.00 0.00 68 1020.3
20260502222017 49 19 0.0 1.7 0.00 0.00 0.00 68 1020.4
20260502221033 49 0.0 0.0 0.00 0.00 0.00 67 1020.4
20260502220030 52 0.0 0.0 0.00 0.00 0.00 60 1020.3
20260502215026 52 0.0 0.0 0.00 0.00 0.00 59 1020.2
20260502214024 52 0.0 0.0 0.00 0.00 0.00 58 1020.4
20260502213019 50 0.0 0.0 0.00 0.00 0.00 62 1020.3
20260502212036 51 0.0 0.0 0.00 0.00 0.00 60 1020.3
20260502211033 53 0.0 0.0 0.00 0.00 0.00 56 1020.4
20260502210029 53 0.0 0.0 0.00 0.00 0.00 57 1020.2
20260502205046 52 0.0 0.0 0.00 0.00 0.00 59 1020.4
20260502204023 53 0.0 0.0 0.00 0.00 0.00 58 1020.4
20260502203019 54 0.0 0.0 0.00 0.00 0.00 57 1020.3
20260502202016 55 0.0 0.0 0.00 0.00 0.00 53 1020.4
20260502201032 56 100 0.0 1.7 0.00 0.00 0.00 51 1020.4
20260502200029 57 55 0.9 1.7 0.00 0.00 0.00 50 1020.3